Regional Weather Roundup
Issued by NWS

Home | Current Version | Previous Version | Graphics & Text | Print | Product List | Glossary On
Versions: 1 2 3 4 5 6 7 8 9 10 11 12 13 14 15 16 17 18 19 20 21 22 23 24 25 26 27
000
ASUS45 KTFX 230910
RWRMT
MONTANA REGIONAL WEATHER ROUNDUP
NATIONAL WEATHER SERVICE GREAT FALLS MT
300 AM MDT THU MAR 23 2017

NOTE: "FAIR" INDICATES FEW OR NO CLOUDS BELOW 12000 FEET WITH NO
SIGNIFICANT WEATHER AND/OR OBSTRUCTIONS TO VISIBILITY.

MTZ001>007-043-231000-
WEST OF THE DIVIDE

CITY           SKY/WX    TMP DP  RH WIND       PRES   REMARKS
KALISPELL      CLOUDY    40  39  97 S8        29.89F
MISSOULA       MOCLDY    41  36  82 N8        29.93S
BUTTE          CLOUDY    34  26  72 CALM      29.86S
MULLAN PASS    CLOUDY    28  28 100 VRB7G17   29.89S WCI  21
ANACONDA         N/A     32  27  80 SW5       29.88S
DEER LODGE       N/A     37  30  75 N3        29.89F
EUREKA           N/A     39  37  93 SE5       29.88S
HAMILTON         N/A     45  32  61 CALM      29.91S
PLAINS           N/A     37  32  82 CALM      29.94S VSB 0
RONAN            N/A     41  38  89 CALM      29.96F
$$

MTZ008-052>055-231000-
SOUTHWEST MONTANA

CITY           SKY/WX    TMP DP  RH WIND       PRES   REMARKS
BOZEMAN        CLOUDY    37  35  92 CALM      29.83S
DILLON         CLOUDY    35  29  78 S5        29.83R
W YELLOWSTONE  CLOUDY    27  27 100 NE5       29.84R
ENNIS          CLOUDY    36  28  75 CALM      29.87S
THREE FORKS      N/A     33  33 100 CALM      29.83F
TWIN BRIDGES     N/A     35  26  70 CALM      29.84S
$$

MTZ009-010-012-014-046-048-049-054-231000-
EAST SLOPES AND CENTRAL MONTANA

CITY           SKY/WX    TMP DP  RH WIND       PRES   REMARKS
CUT BANK       MOCLDY    39  30  70 W18       29.77S WCI  30
GREAT FALLS    CLEAR     30  23  75 SW8       29.81R WCI  22
HELENA         CLOUDY    45  31  58 SW3       29.84S
AUGUSTA          N/A     37  28  70 W6        29.80R
BOWMANS CRNR     N/A     36  25  64 W3        29.81R
CHOTEAU          N/A     37  30  75 S6        29.81S
CONRAD           N/A     42  32  68 SW9       29.82S
FAIRFIELD        N/A     37  27  67 CALM      29.80R
POWER            N/A     29  25  82 S5        29.80R
RAYNESFORD       N/A     34  24  68 CALM      29.82S
$$

MTZ011-013-016-021-045-047-050-051-231000-
NORTH CENTRAL MONTANA

CITY           SKY/WX    TMP DP  RH WIND       PRES   REMARKS
HAVRE          PTCLDY    35  29  78 SW7       29.77F WCI  29
LEWISTOWN      PTCLDY    35  26  69 SW9       29.81R WCI  28
N BAR RANCH      N/A     37  32  81 W7        29.82S
CHINOOK          N/A     30  27  86 CALM      29.78S
DENTON           N/A     42  27  56 CALM      29.78R
FORT BENTON      N/A     34  27  75 MISG      29.82R
GEYSER         MOCLDY    34  25  69 SW7       29.80S WCI  28
GRASS RANGE      N/A     37  32  82 SW8       29.76F WCI  31
STANFORD         N/A     38  26  61 W7        29.81S
WINIFRED         N/A     38  27  64 W7        29.79S
$$

MTZ017>020-022>027-061-062-231000-
NORTHEAST MONTANA

CITY           SKY/WX    TMP DP  RH WIND       PRES   REMARKS
GLASGOW        CLOUDY    41  34  76 SE7       29.75S
JORDAN           N/A     45  40  82 E3        29.76R
SIDNEY         CLOUDY    34  31  88 CALM      29.75F
WOLF POINT     CLOUDY    37  34  89 N5        29.75F
MALTA          CLEAR     32  30  93 CALM      29.76S
PLENTYWOOD       N/A     39  36  87 CALM      29.75S
POPLAR           N/A     37  36  93 CALM      29.76F
SCOBEY           N/A     34  24  67 CALM      29.74F
$$

MTZ028>42-056>058-231000-
SOUTHCENTRAL AND SOUTHEAST MONTANA

CITY           SKY/WX    TMP DP  RH WIND       PRES   REMARKS
BAKER          CLOUDY    41  37  86 NW3       29.78S
BILLINGS       CLOUDY    45  42  89 NW7       29.77S
LIVINGSTON     CLOUDY    40  33  76 SW6       29.80F
MILES CITY     CLOUDY    46  39  76 NE9       29.75F
BIG TIMBER     CLOUDY    41  34  75 SW8       29.81F
EKALAKA          N/A     42  38  86 NW2       29.77S
FORSYTH          N/A     45  39  81 W6        29.75F
HARLOWTON      MOCLDY    37  29  72 W10       29.78F WCI  30
LAUREL           N/A     43  34  70 CALM      29.78S
$$

REGIONAL REPORTS...DAKOTAS

CITY           SKY/WX    TMP DP  RH WIND       PRES   REMARKS
WILLISTON      CLOUDY    30  28  92 CALM      29.76F
MINOT          CLOUDY    33  28  81 S9        29.77F WCI  25
DICKINSON      CLOUDY    34  30  85 SE3       29.74S
BEACH            N/A    N/A N/A N/A MISG        N/A
TIOGA            N/A     32  32 100 CALM      29.77S
WATFORD CITY     N/A     30  30 100 CALM      29.76F
BISMARCK       PTCLDY    32  27  81 E8        29.81F WCI  25
GRAND FORKS    CLOUDY    34  21  59 S13       29.93F WCI  25
FARGO          CLOUDY    36  25  64 S23G36    29.95F WCI  24
BUFFALO SD       N/A     42  37  82 N3        29.70R
RAPID CITY     CLOUDY    48  38  68 S6        29.71S
$$

REGIONAL REPORTS...WYOMING/IDAHO/WASHINGTON

CITY           SKY/WX    TMP DP  RH WIND       PRES   REMARKS
GILLETTE       CLOUDY    50  41  71 W9        29.71F
SHERIDAN       CLOUDY    45  40  82 NW8       29.75S
BUFFALO WY     CLOUDY    45  38  76 NW10      29.75S
CODY           CLOUDY    46  35  65 N8        29.76F
YELLOWSTONE LA   N/A     30  29  96 CALM      29.84S
IDAHO FALLS    CLOUDY    40  36  86 SW5       29.81S
SALMON         PTCLDY    39  28  65 CALM      29.86S
BOISE          CLEAR     41  35  79 W12       29.92R
SPOKANE        PTCLDY    39  35  86 SW15      29.94S WCI  31
$$

REGIONAL REPORTS...ALBERTA

CITY           SKY/WX    TMP DP  RH WIND       PRES   REMARKS
EDMONTON       MOCLDY    23  19  86 E3        29.72S
CALGARY        PTCLDY    39  19  45 W7        29.67F
LETHBRIDGE     MOCLDY    39  30  70 SW16      29.73F WCI  30
MEDICINE HAT   CLEAR     32  27  80 SW7       29.72F WCI  26
WATERTON GATE    N/A     41  25  52 SW23G36     N/A
CARDSTON         N/A     43  25  49 W10G18      N/A
MILK RIVER       N/A     39  32  75 W13         N/A  WCI  32
$$

REGIONAL REPORTS...SASKATCHEWAN

CITY           SKY/WX    TMP DP  RH WIND       PRES   REMARKS
SWIFT CURRENT  CLEAR     30  28  93 W9        29.71S WCI  22
REGINA         CLEAR     28  28 100 W8        29.72R WCI  20
SASKATOON      MOCLDY    28  25  86 W9        29.73R WCI  20
CYPRESS HILLS    N/A     37  21  52 NW6         N/A
VAL MARIE        N/A     28  27  93 SW3         N/A
ROCKGLEN         N/A     37  32  81 W9          N/A  WCI  31
ASSINIBOIA       N/A      7   5  92 CALM        N/A
$$




USA.gov is the U.S. government's official web portal to all federal, state and local government web resources and services.